Torna al catalogo

DELTA 1 DEB

AttivoPO
NORAD 21363·DEBRIS·🇺🇸 United States

Lanciato Jun 12, 1975 da Vandenberg Space Force Base

Loading…

Prossimi Passaggi (prossime 24 ore)

TLE

AggiornatoSource: Space-Track

Epoca: Sep 14, 2026, 13:22 UTC

1 21363U 75052CH  26257.55736731  .00000150  00000-0  50057-3 0  9999
2 21363  99.7353 166.2759 0175662  67.5186 106.9894 13.10299769688151

Traccia DELTA 1 DEB in tempo reale con AllMySat

Download on the App Store